Sexton Summit, OR

7:12 PM PST on November 11, 2019 (GMT -0800)
Sexton Summit

Weather History for KSXT - October, 2019

Change the Weather History Date:

Wednesday, October 23, 2019

  Actual Average Record
Temperature  
Mean Temperature 50 °F -  
Max Temperature 57 °F 52 °F 72 °F (2007)
Min Temperature 45 °F 39 °F 28 °F (2012)
Degree Days  
Heating Degree Days 15    
Moisture  
Dew Point 39 °F    
Average Humidity 71    
Maximum Humidity 93    
Minimum Humidity 37    
Precipitation  
Precipitation 0.00 in - - ()
Sea Level Pressure  
Sea Level Pressure 30.34 in    
Wind  
Wind Speed 6 mph (NNE)    
Max Wind Speed 14 mph    
Max Gust Speed 16 mph    
Visibility 7 miles    
Events Fog , Rain    
Averages and records for this station are not official NWS values.
T = Trace of Precipitation, MM = Missing Value Source: NWS Daily Summary

Daily Weather History Graph

Daily Weather History Graph

Search for Another Location

Airport or City:

Astronomy

Oct. 23, 2019 Rise Set
Actual Time 7:36 AM PDT 6:18 PM PDT
Civil Twilight 7:07 AM PDT 6:47 PM PDT
Nautical Twilight 6:34 AM PDT 7:20 PM PDT
Astronomical Twilight 6:01 AM PDT 7:53 PM PDT
Moon 1:51 AM PDT (10/23) 4:21 PM PDT (10/23)
Length of Visible Light 11h 40m
Length of Day
10h 42m
Waning Crescent, 25% of the Moon is Illuminated
Oct 23
Waning Crescent
Oct 27
New
Nov 4
First Quarter
Nov 12
Full
Nov 19
Last Quarter

Hourly Weather History & Observations

Time (PDT) Temp. Windchill Dew Point Humidity Pressure Visibility Wind Dir Wind Speed Gust Speed Precip Events Conditions
12:27 AM 46.9 °F - 44.1 °F 90% 30.38 in 5.0 mi Calm Calm - 0.00 in   Mostly Cloudy
12:32 AM 46.9 °F - 44.1 °F 90% 30.38 in 2.0 mi ENE 3.5 mph - 0.00 in   Scattered Clouds
12:45 AM 48.0 °F - 44.1 °F 86% 30.37 in 10.0 mi Calm Calm - 0.00 in   Partly Cloudy
12:56 AM 48.9 °F - 43.0 °F 80% 30.32 in 10.0 mi SW 4.6 mph - 0.00 in   Clear
1:22 AM 46.9 °F - 43.0 °F 86% 30.37 in 0.8 mi North 5.8 mph - N/A   Mist
1:33 AM 46.9 °F - 44.1 °F 90% 30.37 in 0.2 mi North 5.8 mph - N/A Fog Fog
1:56 AM 46.9 °F - 45.0 °F 93% 30.33 in 0.2 mi NNE 10.4 mph - 0.00 in Fog , Rain Light Rain
2:05 AM 46.9 °F - 45.0 °F 93% 30.37 in 0.5 mi NNE 9.2 mph - 0.00 in Fog , Rain Light Rain
2:18 AM 46.9 °F - 44.1 °F 90% 30.37 in 4.0 mi NNE 8.1 mph - 0.00 in Rain Light Rain
2:25 AM 46.0 °F 41.9 °F 44.1 °F 93% 30.37 in 10.0 mi NNE 8.1 mph - 0.00 in   Scattered Clouds
2:56 AM 46.0 °F 41.4 °F 41.0 °F 83% 30.33 in 10.0 mi NNE 9.2 mph - 0.00 in   Clear
3:29 AM 46.9 °F - 42.1 °F 83% 30.37 in 1.2 mi North 9.2 mph - N/A   Haze
3:31 AM 46.9 °F - 43.0 °F 86% 30.36 in 0.8 mi NNE 10.4 mph - N/A   Mist
3:40 AM 46.9 °F - 42.1 °F 83% 30.36 in 4.0 mi NNE 11.5 mph - N/A   Haze
3:56 AM 46.0 °F 41.0 °F 43.0 °F 89% 30.32 in 10.0 mi NNE 10.4 mph - N/A   Partly Cloudy
4:38 AM 46.0 °F 40.6 °F 42.1 °F 86% 30.36 in 1.8 mi North 11.5 mph - N/A   Scattered Clouds
4:50 AM 46.4 °F 41.1 °F 42.8 °F 87% 30.36 in 1.5 mi North 11.5 mph - N/A   Mostly Cloudy
4:56 AM 46.0 °F 40.6 °F 43.0 °F 89% 30.32 in 1.0 mi NNE 11.5 mph - N/A   Mist
5:01 AM 45.0 °F 39.7 °F 43.0 °F 93% 30.35 in 3.0 mi NNE 10.4 mph - N/A   Mostly Cloudy
5:08 AM 45.0 °F 39.7 °F 42.1 °F 90% 30.35 in 10.0 mi NNE 10.4 mph - N/A   Partly Cloudy
5:59 AM 48.0 °F - 34.0 °F 58% 30.35 in 4.0 mi NNE 12.7 mph - N/A   Haze
6:58 AM 45.0 °F 38.9 °F 39.9 °F 82% 30.36 in 1.8 mi NNE 12.7 mph - N/A   Haze
7:05 AM 46.0 °F 39.9 °F 35.1 °F 66% 30.36 in 10.0 mi NNE 13.8 mph - N/A   Scattered Clouds
7:56 AM 48.9 °F - 24.1 °F 38% 30.33 in 10.0 mi ENE 3.5 mph - 0.00 in Rain Light Rain
8:56 AM 51.1 °F - 26.1 °F 38% 30.33 in 10.0 mi ENE 10.4 mph 16.1 mph 0.00 in Rain Light Rain
9:56 AM 48.9 °F - 35.1 °F 59% 30.35 in 10.0 mi NNE 8.1 mph - 0.00 in   Clear
10:20 AM 48.0 °F - 39.9 °F 74% 30.39 in 6.0 mi NNE 9.2 mph - N/A   Haze
10:56 AM 51.1 °F - 36.0 °F 56% 30.35 in 10.0 mi Variable 4.6 mph - N/A   Clear
11:56 AM 53.1 °F - 37.9 °F 57% 30.34 in 10.0 mi Variable 5.8 mph - N/A   Clear
12:56 PM 54.0 °F - 41.0 °F 62% 30.33 in 10.0 mi NNE 4.6 mph - N/A   Clear
1:56 PM 55.9 °F - 41.0 °F 57% 30.32 in 10.0 mi North 3.5 mph - N/A   Clear
2:56 PM 55.9 °F - 39.0 °F 53% 30.31 in 10.0 mi Variable 3.5 mph - N/A   Clear
3:56 PM 55.9 °F - 34.0 °F 44% 30.30 in 10.0 mi Variable 3.5 mph - N/A   Clear
4:56 PM 54.0 °F - 36.0 °F 51% 30.30 in 10.0 mi Variable 3.5 mph - N/A   Clear
5:56 PM 51.1 °F - 37.0 °F 59% 30.30 in 10.0 mi NNW 8.1 mph - N/A   Clear
6:56 PM 52.0 °F - 39.0 °F 61% 30.30 in 10.0 mi NNE 12.7 mph - N/A   Clear
7:56 PM 53.1 °F - 36.0 °F 52% 30.29 in 10.0 mi NE 6.9 mph - N/A   Clear
8:56 PM 55.0 °F - 30.9 °F 40% 30.28 in 10.0 mi NE 10.4 mph - N/A   Clear
9:56 PM 53.1 °F - 32.0 °F 45% 30.30 in 10.0 mi ENE 5.8 mph - N/A   Clear
10:56 PM 53.1 °F - 32.0 °F 45% 30.29 in 10.0 mi Calm Calm - N/A   Clear
11:56 PM 55.0 °F - 28.9 °F 37% 30.28 in 10.0 mi NE 8.1 mph - N/A   Clear